2023/01/27 00:00:00,80.4,-3.7
2023/01/27 00:10:00,80.3,-3.9
2023/01/27 00:20:00,80.2,-4.2
2023/01/27 00:30:00,80.0,-3.9
2023/01/27 00:40:00,80.0,-3.9
2023/01/27 00:50:00,80.1,-4.1
2023/01/27 01:00:00,79.9,-3.9
2023/01/27 01:10:00,79.8,-4.2
2023/01/27 01:20:00,79.8,-4.1
2023/01/27 01:30:00,79.7,-3.6
2023/01/27 01:40:00,79.6,-4.0
2023/01/27 01:50:00,79.5,-3.9
2023/01/27 02:00:00,79.5,-3.8
2023/01/27 02:10:00,79.4,-4.4
2023/01/27 02:20:00,79.3,-4.1
2023/01/27 02:30:00,79.3,-3.6
2023/01/27 02:40:00,79.4,-4.1
2023/01/27 02:50:00,79.3,-4.0
2023/01/27 03:00:00,79.1,-3.9
2023/01/27 03:10:00,78.8,-4.0
2023/01/27 03:20:00,78.8,-4.0
2023/01/27 03:30:00,78.7,-4.2
2023/01/27 03:40:00,78.6,-4.0
2023/01/27 03:50:00,78.7,-3.6
2023/01/27 04:00:00,78.7,-3.8
2023/01/27 04:10:00,78.6,-3.2
2023/01/27 04:20:00,78.4,-3.8
2023/01/27 04:30:00,78.3,-3.3
2023/01/27 04:40:00,78.1,-3.2
2023/01/27 04:50:00,78.2,-3.6
2023/01/27 05:00:00,78.2,-3.3
2023/01/27 05:10:00,78.2,-3.1
2023/01/27 05:20:00,78.1,-3.1
2023/01/27 05:30:00,78.0,-3.0
2023/01/27 05:40:00,77.9,-3.1
2023/01/27 05:50:00,78.0,-3.1
2023/01/27 06:00:00,78.1,-3.0
2023/01/27 06:10:00,78.3,-3.0
2023/01/27 06:20:00,78.5,-3.1
2023/01/27 06:30:00,78.6,-2.9
2023/01/27 06:40:00,78.6,-2.5
2023/01/27 06:50:00,78.7,-2.4
2023/01/27 07:00:00,78.6,-2.6
2023/01/27 07:10:00,78.6,-3.0
2023/01/27 07:20:00,78.6,-3.1
2023/01/27 07:30:00,78.4,-2.9
2023/01/27 07:40:00,78.3,-2.6
2023/01/27 07:50:00,78.3,-2.4
2023/01/27 08:00:00,78.2,-2.0
2023/01/27 08:10:00,78.2,-2.1
2023/01/27 08:20:00,78.2,-1.4
2023/01/27 08:30:00,78.1,-1.7
2023/01/27 08:40:00,78.0,-1.1
2023/01/27 08:50:00,77.9,-1.3
2023/01/27 09:00:00,77.9,-1.1
2023/01/27 09:10:00,77.9,-0.9
2023/01/27 09:20:00,77.7,-0.7
2023/01/27 09:30:00,77.7,-0.1
2023/01/27 09:40:00,77.8,-0.2
2023/01/27 09:50:00,78.0,-0.2
2023/01/27 10:00:00,78.2,-0.1
2023/01/27 10:10:00,78.4, 0.4
2023/01/27 10:20:00,78.7, 1.0
2023/01/27 10:30:00,78.5, 2.1
2023/01/27 10:40:00,78.6, 1.6
2023/01/27 10:50:00,78.4, 0.8
2023/01/27 11:00:00,78.5, 0.7
2023/01/27 11:10:00,78.6,-0.1
2023/01/27 11:20:00,78.8,-0.6
2023/01/27 11:30:00,79.0, 0.7
2023/01/27 11:40:00,79.0, 2.4
2023/01/27 11:50:00,79.0, 2.5
2023/01/27 12:00:00,78.8, 2.4
2023/01/27 12:10:00,78.8, 2.3
2023/01/27 12:20:00,78.7, 1.8
2023/01/27 12:30:00,78.5, 1.7
2023/01/27 12:40:00,78.5, 2.0
2023/01/27 12:50:00,78.3, 1.7
2023/01/27 13:00:00,78.0, 1.7
2023/01/27 13:10:00,77.9, 1.0
2023/01/27 13:20:00,77.9, 1.2
2023/01/27 13:30:00,77.8, 1.4
2023/01/27 13:40:00,77.7, 1.7
2023/01/27 13:50:00,77.4,-0.7
2023/01/27 14:00:00,77.7,-1.3
2023/01/27 14:10:00,78.0,-1.6
2023/01/27 14:20:00,78.2,-1.7
2023/01/27 14:30:00,78.3,-1.4
2023/01/27 14:40:00,78.5,-1.5
2023/01/27 14:50:00,78.8,-1.4
2023/01/27 15:00:00,79.3,-1.7
2023/01/27 15:10:00,79.8,-1.5
2023/01/27 15:20:00,79.9,-1.7
2023/01/27 15:30:00,80.1,-2.1
2023/01/27 15:40:00,80.4,-2.1
2023/01/27 15:50:00,80.7,-2.0
2023/01/27 16:00:00,81.3,-2.3
2023/01/27 16:10:00,81.7,-2.9
2023/01/27 16:20:00,81.9,-2.8
2023/01/27 16:30:00,82.1,-3.1
2023/01/27 16:40:00,82.7,-2.8
2023/01/27 16:50:00,83.7,-3.2
2023/01/27 17:00:00,83.8,-3.2
2023/01/27 17:10:00,84.0,-3.0
2023/01/27 17:20:00,84.6,-3.2
2023/01/27 17:30:00,84.8,-3.1
2023/01/27 17:40:00,85.3,-3.5
2023/01/27 17:50:00,85.7,-3.5
2023/01/27 18:00:00,85.6,-3.8
2023/01/27 18:10:00,85.3,-3.9
2023/01/27 18:20:00,85.2,-3.6
2023/01/27 18:30:00,84.9,-4.2
2023/01/27 18:40:00,84.8,-4.0
2023/01/27 18:50:00,85.1,-4.2
2023/01/27 19:00:00,85.5,-4.1
2023/01/27 19:10:00,85.6,-4.0
2023/01/27 19:20:00,85.8,-4.0
2023/01/27 19:30:00,85.6,-4.1
2023/01/27 19:40:00,85.8,-4.1
2023/01/27 19:50:00,85.7,-4.1
2023/01/27 20:00:00,85.5,-4.1
2023/01/27 20:10:00,85.6,-3.8
2023/01/27 20:20:00,85.7,-4.1
2023/01/27 20:30:00,85.6,-4.0
2023/01/27 20:40:00,85.8,-4.3
2023/01/27 20:50:00,85.9,-4.1
2023/01/27 21:00:00,85.8,-4.2
2023/01/27 21:10:00,86.1,-4.4
2023/01/27 21:20:00,86.6,-3.7
2023/01/27 21:30:00,86.9,-3.7
2023/01/27 21:40:00,87.3,-4.1
2023/01/27 21:50:00,87.8,-3.7
2023/01/27 22:00:00,88.6,-4.0
2023/01/27 22:10:00,89.6,-3.9
2023/01/27 22:20:00,90.4,-4.0
2023/01/27 22:30:00,90.7,-3.9
2023/01/27 22:40:00,91.1,-3.8
2023/01/27 22:50:00,91.4,-3.6
2023/01/27 23:00:00,91.9,-3.8
2023/01/27 23:10:00,92.6,-4.0
2023/01/27 23:20:00,93.1,-3.8
2023/01/27 23:30:00,94.0,-4.1
2023/01/27 23:40:00,95.1,-4.4
2023/01/27 23:50:00,95.4,-4.3
